Regional Weather Roundup
Issued by NWS Grand Forks, ND

Home | Current Version | Previous Version | Text Only | Print | Product List | Glossary Off
Versions: 1 2 3 4 5 6 7 8 9 10 11 12 13 14 15 16 17 18 19 20 21 22 23 24 25 26 27 28 29 30 31 32 33 34 35 36 37 38 39 40 41 42 43 44 45 46 47 48 49 50

000
ASUS43 KFGF 051410
RWRFGF
PRAIRIE TO PINES  WEATHER ROUNDUP
NATIONAL WEATHER SERVICE EASTERN NORTH DAKOTA/GRAND FORKS ND
800 AM CST THU MAR 05 2015

 **SATELLITE DATA USED TO AUGMENT SKY COVER AT AUTOMATED STATIONS**
 *****  WEATHER ACROSS EASTERN NORTH DAKOTA  *****

CITY           SKY/WX    TMP DP  RH WIND       PRES   REMARKS
GRAND FORKS    MOCLDY    -9 -15  75 S10       30.34S WCI -27
GRAND FRKS AFB CLEAR     -6 -15  65 S9        30.32S WCI -22
GRAND FRKS NWS   N/A     -9 N/A N/A S10         N/A  WCI -28
DEVILS LAKE    PTCLDY    -6 -15  65 S3        30.20S
FARGO          PTCLDY    -4 -12  68 S9        30.39F WCI -20
WAHPETON ARPT  MOSUNNY   -8 -15  71 SE5       30.43S WCI -19
$$

 ***** WEATHER ACROSS CENTRAL AND WESTERN NORTH DAKOTA  *****

CITY           SKY/WX    TMP DP  RH WIND       PRES   REMARKS
BISMARCK       PTCLDY    -3  -9  75 SE6       30.20F WCI -15
MINOT          MOCLDY     0  -9  65 SW15      30.10F WCI -19
JAMESTOWN      PTCLDY    -6 -12  75 S8        30.25F WCI -21
MINOT AFB      PTCLDY    -6 -12  73 S6        30.09F WCI -18
GARRISON         N/A     -7 -12  79 SE6       30.12F WCI -20
WILLISTON        N/A    N/A N/A N/A MISG      30.07S
DICKINSON      CLOUDY     9   0  67 S12       30.02F WCI  -6
HETTINGER      CLOUDY     8   0  69 SW7       30.09F WCI  -3
$$

 *****  OTHER AIRPORT OBSERVATIONS IN OUR AREA  *****

CITY           SKY/WX    TMP DP  RH WIND       PRES   REMARKS
WALHALLA         N/A     -6 -15  65 SE3       30.25F
GRAFTON AIRPOR NOT AVBL
VALLEY CITY AR   N/A     -6 -11  77 S10       30.29S WCI -23
CANDO          FAIR     -13 -18  77 SE6       30.19F WCI -27
CAVALIER APRT  FAIR      -8 -13  77 S6        30.27F WCI -21
GWINNER        SUNNY     -4 -13  65 SW12      30.36S WCI -22
SHEYENNE NWR     N/A     -6 -15  66 SW7       29.95S WCI -20
ROLLA          FAIR      -4 -11  71 SW10      30.11F WCI -21
 ***** THE ABOVE OBSERVATIONS ARE NON NWS ARE NOT QUALITY
       CONTROLLED AND MAY MIS-REPORT RAIN FOR SNOW...
$$

  *****  WEATHER ACROSS NORTHERN MINNESOTA  *****

CITY           SKY/WX    TMP DP  RH WIND       PRES   REMARKS
FLAG ISLAND    PTCLDY   -18 -24  76 S7        30.26S WCI -35
WARROAD        PTCLDY   -11 -18  70 SW6       30.27S WCI -25
ROSEAU         MOCLDY   -11 -18  70 SW9       30.29R WCI -29
HALLOCK        NOT AVBL
THF RVR FALLS  MOCLDY   -11 -20  64 S8        30.32R WCI -28
BAUDETTE       MOCLDY   -16 -21  78 SW5       30.27S WCI -29
WASKISH        PTSUNNY   -9 -15  77 CALM      30.31S
CROOKSTON      MOCLDY    -9 -15  77 SE7       30.36F WCI -24
$$
  *****  WEATHER ACROSS CENTRAL AND WEST MINNESOTA  *****

CITY           SKY/WX    TMP DP  RH WIND       PRES   REMARKS
FOSSTON        MOCLDY   -13 -17  84 S9        30.33S WCI -31
BEMIDJI        MOSUNNY  -15 -20  80 CALM      30.31R
PARK RAPIDS    PTSUNNY  -14 -18  82 S6        30.33S WCI -28
ELBOW LAKE     FAIR     -12 -17  81 S5        30.41R WCI -24
WADENA         MOSUNNY  -13 -17  84 SW6       30.37R WCI -27
DETROIT LAKES  MOCLDY   -13 -17  84 S5        30.36S WCI -25
MOORHEAD       MOCLDY    -6  -9  84 S7        30.40S WCI -20
FERGUS FALLS   PTCLDY   -13 -18  77 SE6       30.46R WCI -27
MORRIS MN      PTSUNNY  -15 -18  84 S3        30.42S
STAPLES        PTSUNNY  -20 -26  76 CALM      30.38S
$$
  *****  WEATHER ELSEWHERE ACROSS MINNESOTA  *****

CITY           SKY/WX    TMP DP  RH WIND       PRES   REMARKS
DULUTH         FAIR      -9 -16  71 NW10      30.33R WCI -27
INTRNTL FALLS  PTSUNNY  -18 -22  82 SW7       30.30S WCI -35
ELY            PTSUNNY  -18 -24  76 SW3       30.31S
CLOQUET        MOSUNNY  -11 -18  70 W6        30.37R WCI -25
WHEATON        MOCLDY   -11 -18  70 S6        30.44S WCI -25
BRAINERD       PTSUNNY  -20 -23  86 SW3       30.40R
HIBBING        PTSUNNY  -24 -30  73 CALM      30.34R
ALEXANDRIA     MOSUNNY  -14 -18  82 SW6       30.39R WCI -28
SAINT CLOUD    PTSUNNY  -12 -16  82 S3        30.46R
MINNEAPOLIS    MOSUNNY   -4 -10  75 SW5       30.51R WCI -15
$$

  *****  WEATHER ACROSS SOUTH DAKOTA  *****

CITY           SKY/WX    TMP DP  RH WIND       PRES   REMARKS
SIOUX FALLS    MOSUNNY   -4  -8  83 CALM      30.45S
BROOKINGS      NOT AVBL
WATERTOWN      PTCLDY   -12 -17  78 S6        30.36S WCI -26
HURON          PTCLDY    -5 -11  75 S12       30.40F WCI -23
SISSETON         N/A     -3 -11  68 SW8       30.39S WCI -18
ABERDEEN       PTCLDY   -12 -19  71 S9        30.36F WCI -30
MITCHELL       PTCLDY    -2  -8  76 SE10      30.43F WCI -19
PIERRE         PTCLDY    -5  -8  87 E5        30.28F WCI -16
MOBRIDGE       PTCLDY     1  -6  72 SE13      30.21F WCI -17
RAPID CITY     CLEAR      4  -1  80 CALM      30.13S
$$

  *****  SOME WEATHER IN NEARBY STATES *****

CITY           SKY/WX    TMP DP  RH WIND       PRES   REMARKS
GLASGOW MT     CLEAR      8   0  69 NW5       30.04R WCI   0
GREAT FALLS MT CLEAR     26  12  55 SW16      30.09R WCI  14
CHEYENNE WY    PTCLDY    24   6  46 W12       30.11R WCI  13
SCOTTSBLUFF NE PTCLDY     8   3  80 NW6       30.19S WCI  -2
OMAHA NE       SUNNY      8   1  73 CALM      30.56R
DES MOINES IA  SUNNY      4  -5  66 NW6       30.56R WCI  -7
DAVENPORT IA   SUNNY     -4 -11  72 W9        30.52R WCI -20
CHICAGO IL     MOSUNNY    6  -6  57 NW9       30.43R WCI  -8
EAU CLAIRE WI  SUNNY     -9 -15  75 SW5       30.47R WCI -20
LA CROSSE WI   SUNNY     -1 -10  65 CALM      30.52R
$$

  *****  SOME NATIONAL WEATHER *****

CITY           SKY/WX    TMP DP  RH WIND       PRES   REMARKS
LA GUARDIA NY  SNOW      29  26  89 N16       30.11R VSB 1/2 WCI  17
RALEIGH NC     LGT RAIN  64  58  80 SW5       29.89F
ATLANTA GA     LGT RAIN  50  48  93 NW10      29.94R FOG
NEW ORLEANS LA CLOUDY    42  37  82 N23G32    30.19R
OKLAHOMA CITY  MOSUNNY   12   7  80 CALM      30.54R
ALBUQUERQUE NM CLEAR     23  18  81 N7        30.37R WCI  15
SALT LAKE CITY PTCLDY    27  20  75 SE8       30.40R WCI  19
LOS ANGELES CA PTCLDY    53  27  36 N7        30.21R
BOISE ID       CLEAR     28  16  60 SE7       30.37R WCI  21
SEATTLE WA     MOCLDY    38  28  67 SE3       30.32R
$$

*** WEATHER ACROSS MANITOBA...SASKATCHEWAN AND ONTARIO ***
                ***ONTARIO***

CITY           SKY/WX    TMP DP  RH WIND       PRES   REMARKS
GERALDTON      SUNNY     -9 -17  70 W8G17     30.20R WCI -26
THUNDER BAY    SUNNY     -9 -17  70 W9        30.37R WCI -27
SIOUX LOOKOUT  SUNNY    -15 -20  76 SW5       30.22R WCI -27
TORONTO        PTSUNNY    5  -4  66 N15G22    30.31R WCI -13
BIG TROUT LK   SUNNY    -13 -20  70 W9        30.02S WCI -31
PICKLE LAKE    SUNNY    -11 -22  58 W10G17    30.11R WCI -30
DRYDEN         SUNNY    -17 -20  83 SW9       30.21S WCI -36
KENORA         CLEAR    -17 -22  76 SW9       30.21S WCI -36
$$
                *** MANITOBA***

CITY           SKY/WX    TMP DP  RH WIND       PRES   REMARKS
BRANDON        PTCLDY   -18 -24  76 VRB2      30.14F
DAUPHIN        CLEAR     -4 -15  59 W10       30.08F WCI -21
ISLAND LAKE    PTCLDY   -15 -22  70 SW7       30.05S WCI -31
PILOT MOUND      N/A    -17 -22  76 S8          N/A  WCI -34
THE PAS        PTCLDY   -15 -22  70 S9        29.92F WCI -33
THOMPSON       MOCLDY   -17 -22  76 S3        29.89F
WINNIPEG       CLEAR    -11 -20  64 S12       30.25F WCI -31
LYNN LAKE      CLOUDY    -8 -15  71 SW8       29.73F WCI -23
CHURCHILL      CLOUDY   -24 -29  76 S6        29.86F WCI -40
GILLAM         MOCLDY   -15 -22  70 SW9       29.91F WCI -33
$$
                ***SASKATCHEWAN***

CITY           SKY/WX    TMP DP  RH WIND       PRES   REMARKS
ESTEVAN        CLEAR    -15 -20  76 SE3       30.04F
KINDERSLEY     PTCLDY     5   0  78 SW8       29.94S WCI  -8
LLOYDMINSTER   PTCLDY    14   7  73 W17       29.86S WCI  -3
PRINCE ALBERT  MOCLDY    -4 -11  71 SW7       29.86F WCI -18
REGINA         PTCLDY   -11 -18  70 SE9       30.00F WCI -29
YORKTON        CLEAR    -13 -18  77 S8        29.99F WCI -30
N. BATTLEFORD  CLEAR      3  -2  78 W2        29.91R
LA RONGE       MOCLDY    -9 -15  77 CALM      29.77F
SASKATOON      PTCLDY    -4  -9  77 S7        29.92F WCI -18
SWIFT CURRENT  CLEAR     12   7  79 W14       29.95S WCI  -3
$$
NOTE: THESE ARE AUTOMATED STATIONS WITH LIMITED QUALITY CONTROL
      "FAIR" INDICATES FEW OR NO CLOUDS BELOW 12,000 FEET WITH NO
      SIGNIFICANT WEATHER AND/OR OBSTRUCTIONS TO VISIBILITY.
      SKY/WX - SKY CONDITION AND SIGNIFICANT WEATHER.
      TMP - AIR TEMPERATURE.    DP   - DEWPOINT TEMPERATURE.
      RH  - RELATIVE HUMIDITY.  PRES - PRESSURE.
      HX  - HEAT INDEX.         WCI  - WIND CHILL INDEX.
$


USA.gov is the U.S. government's official web portal to all federal, state and local government web resources and services.